Lansing, MI

5:42 PM EDT on May 24, 2017 (GMT -0400)
Capital City

Weather History for KLAN - October, 2013

Change the Weather History Date:

Sunday, October 20, 2013

  Actual Average Record
Temperature  
Mean Temperature 48 °F 49 °F  
Max Temperature 58 °F 58 °F 82 °F (1953)
Min Temperature 38 °F 40 °F 17 °F (1972)
Degree Days  
Heating Degree Days 17 16  
Month to date heating degree days 176 263  
Since 1 July heating degree days 367 451  
Cooling Degree Days 0 0  
Month to date cooling degree days 10 4  
Year to date cooling degree days 661 622  
Moisture  
Dew Point 39 °F    
Average Humidity 72    
Maximum Humidity 92    
Minimum Humidity 51    
Precipitation  
Precipitation 0.05 in 0.08 in 2.61 in (1877)
Month to date precipitation 1.65 1.66  
Year to date precipitation 35.55 26.25  
Snow  
Snow 0.00 in 0.00 in 1.20 in (1992)
Month to date snowfall 0.0 0.2  
Since 1 July snowfall 0.0 0.2  
Since 1 September snowfall 0.0 0.2  
Snow Depth 0.00 in    
Sea Level Pressure  
Sea Level Pressure 29.85 in    
Wind  
Wind Speed 8 mph (SSW)    
Max Wind Speed 23 mph    
Max Gust Speed 32 mph    
Visibility 10 miles    
Events Rain    
T = Trace of Precipitation, MM = Missing Value Source: NWS Daily Summary

Daily Weather History Graph

Daily Weather History Graph

Search for Another Location

Airport or City:

Trip Planner

Search our weather history database for the weather conditions in past years. The results will help you decide how hot, cold, wet, or windy it might be!

Date:

Astronomy

Oct. 20, 2013 Rise Set
Actual Time 7:57 AM EDT 6:47 PM EDT
Civil Twilight 7:29 AM EDT 7:16 PM EDT
Nautical Twilight 6:56 AM EDT 7:49 PM EDT
Astronomical Twilight 6:23 AM EDT 8:21 PM EDT
Moon 7:52 PM EDT (10/20) 9:37 AM EDT (10/20)
Length of Visible Light 11h 47m
Length of Day
10h 49m
Full, 97% of the Moon is Illuminated
Oct 20
Full
Oct 26
Last Quarter
Nov 3
New
Nov 10
First Quarter
Nov 17
Full

Hourly Weather History & Observations

Time (EDT) Temp. Windchill Dew Point Humidity Pressure Visibility Wind Dir Wind Speed Gust Speed Precip Events Conditions
12:53 AM 42.1 °F 36.6 °F 39.0 °F 89% 29.83 in 10.0 mi SSW 9.2 mph - 0.01 in   Overcast
1:53 AM 41.0 °F 37.1 °F 37.9 °F 89% 29.83 in 10.0 mi South 5.8 mph - N/A   Clear
2:53 AM 39.9 °F 34.5 °F 37.9 °F 93% 29.83 in 10.0 mi SSW 8.1 mph - N/A   Partly Cloudy
3:53 AM 42.1 °F 36.6 °F 39.0 °F 89% 29.83 in 4.0 mi WSW 9.2 mph - 0.03 in Rain Light Rain
4:27 AM 42.8 °F 39.3 °F 39.2 °F 87% 29.81 in 10.0 mi WSW 5.8 mph - 0.02 in   Overcast
4:53 AM 39.9 °F 36.7 °F 39.0 °F 97% 29.83 in 10.0 mi SSW 4.6 mph - 0.02 in   Mostly Cloudy
5:53 AM 39.0 °F 34.8 °F 37.0 °F 93% 29.83 in 9.0 mi South 5.8 mph - N/A   Clear
6:53 AM 39.0 °F 34.8 °F 37.0 °F 93% 29.84 in 10.0 mi SSW 5.8 mph - N/A   Partly Cloudy
7:53 AM 39.0 °F 34.8 °F 37.0 °F 93% 29.85 in 10.0 mi SW 5.8 mph - N/A   Overcast
8:50 AM 42.8 °F 37.5 °F 39.2 °F 87% 29.95 in 10.0 mi South 9.2 mph - N/A   Clear
8:53 AM 41.0 °F 37.1 °F 39.0 °F 93% 29.88 in 9.0 mi SSW 5.8 mph - N/A   Overcast
9:53 AM 43.0 °F 38.8 °F 39.9 °F 89% 29.90 in 10.0 mi SSW 6.9 mph - N/A   Overcast
10:53 AM 46.9 °F - 42.1 °F 83% 29.91 in 10.0 mi SW 4.6 mph - N/A   Overcast
11:53 AM 48.0 °F - 37.9 °F 68% 29.91 in 10.0 mi WSW 6.9 mph - N/A   Mostly Cloudy
12:53 PM 52.0 °F - 39.9 °F 63% 29.91 in 10.0 mi Variable 4.6 mph - N/A   Mostly Cloudy
1:53 PM 51.1 °F - 37.9 °F 61% 29.91 in 10.0 mi SW 5.8 mph - N/A   Clear
2:53 PM 54.0 °F - 37.0 °F 53% 29.88 in 10.0 mi WSW 12.7 mph - N/A   Clear
3:53 PM 55.0 °F - 37.9 °F 53% 29.87 in 10.0 mi WSW 6.9 mph - N/A   Partly Cloudy
4:53 PM 55.0 °F - 39.0 °F 55% 29.86 in 10.0 mi SW 11.5 mph - N/A   Overcast
5:53 PM 55.0 °F - 39.0 °F 55% 29.86 in 10.0 mi South 6.9 mph - N/A   Overcast
6:53 PM 53.1 °F - 39.9 °F 61% 29.85 in 10.0 mi SSE 5.8 mph - 0.00 in Rain Light Rain
7:53 PM 53.1 °F - 39.9 °F 61% 29.83 in 10.0 mi SE 8.1 mph - 0.00 in   Overcast
8:53 PM 53.1 °F - 39.9 °F 61% 29.82 in 10.0 mi SSE 8.1 mph - N/A   Overcast
9:53 PM 54.0 °F - 39.9 °F 59% 29.81 in 10.0 mi South 13.8 mph - N/A   Overcast
10:53 PM 55.0 °F - 41.0 °F 59% 29.79 in 10.0 mi South 16.1 mph 24.2 mph N/A   Scattered Clouds
11:53 PM 55.0 °F - 41.0 °F 59% 29.80 in 10.0 mi SSW 16.1 mph 25.3 mph N/A   Mostly Cloudy